Regional Weather Roundup
Issued by NWS Green Bay, WI

Home | Current Version | Previous Version | Graphics & Text | Print | Product List | Glossary Off
Versions: 1 2 3 4 5 6 7 8 9 10 11 12 13 14 15 16 17 18 19 20 21 22 23 24 25 26 27 28 29 30 31 32 33 34 35 36 37 38 39 40 41 42 43 44 45 46 47 48 49 50

000
ASUS43 KGRB 250111
RWRGRB

NORTH-CENTRAL AND NORTHEAST WISCONSIN REGIONAL WEATHER ROUNDUP
NATIONAL WEATHER SERVICE GREEN BAY WI
700 PM CST FRI NOV 24 2017

WIZ005-009-010>012-018-019-250200-
NORTH CENTRAL WISCONSIN

CITY           SKY/WX    TMP DP  RH WIND       PRES   REMARKS
IRONWOOD       CLOUDY    40  38  93 W15G22    29.46R
MANITOWISH WTR CLOUDY    39  39 100 W7        29.44R
ARBOR VITAE    CLOUDY    42  40  95 W7        29.43R
EAGLE RIVER    CLOUDY    41  41  99 W8        29.41R
LAND O LAKES   CLOUDY    41  40  97 W3        29.42R
RHINELANDER    CLOUDY    43  42  97 NW7       29.43R
PHILLIPS       PTCLDY    41  41 100 W3        29.46R
ANTIGO         RAIN      44  43  94 NW10      29.42R
TOMAHAWK       CLOUDY    42  40  91 W5        29.45R
MERRILL        LGT RAIN  46  43  91 N12       29.44R
$$

WIZ013-073-250200-
NORTHEAST WISCONSIN

CITY           SKY/WX    TMP DP  RH WIND       PRES   REMARKS
IRON MOUNTAIN  LGT RAIN  47  40  76 NW16      29.37R
MARINETTE      LGT RAIN  55  40  56 W7        29.37R
OCONTO         CLOUDY    54  41  60 W9        29.37R
$$

WIZ017-030-035>037-045-250200-
CENTRAL WISCONSIN

CITY           SKY/WX    TMP DP  RH WIND       PRES   REMARKS
MEDFORD        CLOUDY    43  41  91 NW9       29.47R
WAUSAU         LGT RAIN  47  45  93 NW10      29.43R
MOSINEE        LGT RAIN  46  45  93 W15       29.45R
MARSHFIELD     LGT RAIN  47  44  90 NW13      29.46R
WISC RAPIDS    LGT RAIN  51  45  79 W10       29.47R
STEVENS POINT  LGT RAIN  48  45  87 W8        29.45R
WAUPACA        CLOUDY    57  42  56 W8        29.43R
SHAWANO        RAIN      56  42  61 W10       29.40R
CLINTONVILLE   DRIZZLE   54  41  62 W14       29.42R
WAUTOMA        LGT RAIN  54  42  64 W12       29.45R
$$

WIZ038-039-048-051-250200-
FOX VALLEY

CITY           SKY/WX    TMP DP  RH WIND       PRES   REMARKS
NWS GREEN BAY  LGT RAIN  55  43  63 W12       29.39R
APPLETON       CLOUDY    55  37  50 W8        29.40R
OSHKOSH        CLOUDY    56  40  55 W5        29.41R
FOND DU LAC    MOCLDY    55  38  52 W9        29.42R
$$

WIZ022-050-052-250200-
EAST CENTRAL WISCONSIN

CITY           SKY/WX    TMP DP  RH WIND       PRES   REMARKS
EPHRAIM        LGT RAIN  49  39  67 W6        29.34R
WASHINGTON ISL RAIN      47  40  77 SW6       29.32R
STURGEON BAY   LGT RAIN  53  40  61 W7        29.37R
MANITOWOC      CLOUDY    56  40  55 W8        29.40R
SHEBOYGAN      CLOUDY    55  40  56 W7        29.40R
$$

LMZ563-521-522-541>543-250200-
LAKESHORE

STATION/POSITION TIME  TEMP    WIND        PRES    VSBY  WAVE
                       AIR SEA DIR/SP/G                  HT/PER
                 (UTC) (F)     (DEG/KT/KT) (MB)    (MI)  (FT/S)
SHEBOYGAN LKSHOR 0100   56     240/  8/  9  995.5R
KEWAUNEE LKSHORE 0048   52     270/  2/  4  994.1R
NORTHPORT PIER   0040   46      CALM  /  6  992.9F
N MID LAKE BUOY  0050   48 47  200/ 17/ 21  992.9F        10/ 9
SISTER BAY LKSHO 0050   50        CALM       N/A
MENOMINEE LKSHOR 0048   54     240/  8/ 10  994.1R
$$




USA.gov is the U.S. government's official web portal to all federal, state and local government web resources and services.